Weather History for Menominee, MI

Change the Weather History Date:

Friday, July 12, 2013

  Actual Average Record
Temperature  
Mean Temperature 66 °F -  
Max Temperature 80 °F 81 °F 94 °F (1983)
Min Temperature 53 °F 57 °F 45 °F (1976)
Cooling Degree Days 2    
Growing Degree Days 16 (Base 50)    
Moisture  
Dew Point 55 °F    
Average Humidity 65    
Maximum Humidity 100    
Minimum Humidity 44    
Precipitation  
Precipitation 0.00 in - - ()
Sea Level Pressure  
Sea Level Pressure 30.11 in    
Wind  
Wind Speed 4 mph (SSW)    
Max Wind Speed 14 mph    
Max Gust Speed 18 mph    
Visibility 10 miles    
Events      
Averages and records for this station are not official NWS values.
T = Trace of Precipitation, MM = Missing Value Source: NWS Daily Summary

Daily Weather History Graph

Daily Weather History Graph

Search for Another Location

Airport:

Trip Planner

Search our weather history database for the weather conditions in past years. The results will help you decide how hot, cold, wet, or windy it might be!

Date:

Astronomy

Jul. 12, 2013 Rise Set
Actual Time 5:15 AM CDT 8:36 PM CDT
Civil Twilight 4:38 AM CDT 9:12 PM CDT
Nautical Twilight 3:51 AM CDT 10:00 PM CDT
Astronomical Twilight 2:51 AM CDT 10:59 PM CDT
Moon 9:45 AM CDT (7/12) 10:31 PM CDT (7/12)
Length of Visible Light 16h 34m
Length of Day
15h 21m
Waxing Crescent, 17% of the Moon is Illuminated
Jul 12
Waxing Crescent
Jul 15
First Quarter
Jul 22
Full
Jul 29
Last Quarter
Aug 6
New

Hourly Weather History & Observations

Time (CDT) Temp. Heat Index Dew Point Humidity Pressure Visibility Wind Dir Wind Speed Gust Speed Precip Events Conditions
12:15 AM 60.8 °F - 55.4 °F 82% 30.09 in 10.0 mi Calm Calm - N/A   Clear
12:35 AM 57.2 °F - 53.6 °F 88% 30.09 in 10.0 mi Calm Calm - N/A   Clear
12:55 AM 59.0 °F - 55.4 °F 88% 30.10 in 10.0 mi Calm Calm - N/A   Clear
1:15 AM 57.2 °F - 55.4 °F 94% 30.10 in 10.0 mi Calm Calm - N/A   Clear
1:35 AM 57.2 °F - 55.4 °F 94% 30.10 in 10.0 mi Calm Calm - N/A   Clear
1:55 AM 57.2 °F - 53.6 °F 88% 30.10 in 10.0 mi Calm Calm - N/A   Clear
2:15 AM 55.4 °F - 53.6 °F 94% 30.10 in 10.0 mi Calm Calm - N/A   Clear
2:35 AM 57.2 °F - 55.4 °F 94% 30.09 in 10.0 mi Calm Calm - N/A   Clear
2:55 AM 57.2 °F - 55.4 °F 94% 30.08 in 10.0 mi Calm Calm - N/A   Clear
3:15 AM 57.2 °F - 55.4 °F 94% 30.10 in 10.0 mi Calm Calm - N/A   Clear
3:35 AM 55.4 °F - 55.4 °F 100% 30.10 in 10.0 mi Calm Calm - N/A   Clear
3:55 AM 55.4 °F - 55.4 °F 100% 30.10 in 10.0 mi Calm Calm - N/A   Clear
4:15 AM 60.8 °F - 53.6 °F 77% 30.11 in 10.0 mi Calm Calm - N/A   Clear
4:35 AM 53.6 °F - 53.6 °F 100% 30.10 in 10.0 mi Calm Calm - N/A   Clear
4:55 AM 57.2 °F - 53.6 °F 88% 30.11 in 10.0 mi Calm Calm - N/A   Clear
5:15 AM 55.4 °F - 53.6 °F 94% 30.12 in 10.0 mi Calm Calm - N/A   Clear
5:35 AM 55.4 °F - 53.6 °F 94% 30.12 in 8.0 mi Calm Calm - N/A   Clear
5:55 AM 55.4 °F - 53.6 °F 94% 30.14 in 10.0 mi Calm Calm - N/A   Clear
6:15 AM 55.4 °F - 53.6 °F 94% 30.14 in 10.0 mi Calm Calm - N/A   Clear
6:35 AM 59.0 °F - 55.4 °F 88% 30.15 in 10.0 mi Calm Calm - N/A   Clear
6:55 AM 60.8 °F - 57.2 °F 88% 30.15 in 10.0 mi Calm Calm - N/A   Clear
7:15 AM 62.6 °F - 60.8 °F 94% 30.15 in 10.0 mi Calm Calm - N/A   Clear
7:35 AM 66.2 °F - 59.0 °F 78% 30.14 in 10.0 mi SSW 3.5 mph - N/A   Clear
7:55 AM 68.0 °F - 55.4 °F 64% 30.15 in 10.0 mi SSW 8.1 mph - N/A   Clear
8:15 AM 69.8 °F - 53.6 °F 56% 30.15 in 10.0 mi SW 11.5 mph - N/A   Clear
8:35 AM 69.8 °F - 51.8 °F 53% 30.15 in 10.0 mi SW 11.5 mph - N/A   Clear
8:55 AM 69.8 °F - 51.8 °F 53% 30.14 in 10.0 mi SSW 6.9 mph - N/A   Clear
9:15 AM 71.6 °F - 51.8 °F 50% 30.15 in 10.0 mi SW 10.4 mph - N/A   Clear
9:35 AM 71.6 °F - 51.8 °F 50% 30.15 in 10.0 mi WSW 6.9 mph - N/A   Clear
9:55 AM 73.4 °F - 50.0 °F 44% 30.16 in 10.0 mi SW 10.4 mph - N/A   Clear
10:15 AM 73.4 °F - 53.6 °F 50% 30.15 in 10.0 mi SW 6.9 mph - N/A   Clear
10:35 AM 73.4 °F - 53.6 °F 50% 30.15 in 8.0 mi SSW 8.1 mph - N/A   Clear
10:55 AM 75.2 °F - 53.6 °F 47% 30.14 in 10.0 mi SSW 9.2 mph - N/A   Clear
11:15 AM 75.2 °F - 55.4 °F 50% 30.13 in 10.0 mi South 9.2 mph - N/A   Clear
11:35 AM 77.0 °F - 55.4 °F 47% 30.13 in 8.0 mi SSW 10.4 mph - N/A   Clear
11:55 AM 77.0 °F - 57.2 °F 50% 30.13 in 10.0 mi SSW 9.2 mph - N/A   Clear
12:15 PM 78.8 °F - 57.2 °F 47% 30.13 in 9.0 mi SSW 10.4 mph - N/A   Clear
12:35 PM 78.8 °F - 57.2 °F 47% 30.12 in 10.0 mi SSW 9.2 mph - N/A   Clear
12:55 PM 78.8 °F - 57.2 °F 47% 30.12 in 10.0 mi WSW 10.4 mph - N/A   Clear
1:15 PM 78.8 °F - 57.2 °F 47% 30.12 in 10.0 mi SSW 9.2 mph - N/A   Clear
1:35 PM 78.8 °F - 57.2 °F 47% 30.12 in 10.0 mi SW 12.7 mph - N/A   Clear
1:55 PM 78.8 °F - 57.2 °F 47% 30.12 in 10.0 mi SSW 8.1 mph - N/A   Clear
2:15 PM 78.8 °F - 55.4 °F 44% 30.11 in 10.0 mi WSW 10.4 mph - N/A   Clear
2:35 PM 78.8 °F - 57.2 °F 47% 30.12 in 10.0 mi SW 9.2 mph - N/A   Clear
2:55 PM 78.8 °F - 57.2 °F 47% 30.11 in 10.0 mi SW 8.1 mph - N/A   Clear
3:15 PM 80.6 °F 81.1 °F 59.0 °F 48% 30.11 in 9.0 mi SSE 9.2 mph - N/A   Clear
3:35 PM 78.8 °F - 59.0 °F 51% 30.10 in 10.0 mi South 8.1 mph - N/A   Clear
3:55 PM 78.8 °F - 59.0 °F 51% 30.10 in 10.0 mi South 11.5 mph 16.1 mph N/A   Clear
4:15 PM 78.8 °F - 60.8 °F 54% 30.10 in 7.0 mi SSE 13.8 mph - N/A   Clear
4:35 PM 78.8 °F - 59.0 °F 51% 30.09 in 10.0 mi SSE 12.7 mph 18.4 mph N/A   Clear
4:55 PM 77.0 °F - 57.2 °F 50% 30.09 in 10.0 mi SSE 10.4 mph - N/A   Clear
5:15 PM 75.2 °F - 57.2 °F 53% 30.08 in 9.0 mi South 10.4 mph - N/A   Clear
5:35 PM 77.0 °F - 57.2 °F 50% 30.08 in 10.0 mi South 11.5 mph - N/A   Clear
5:55 PM 77.0 °F - 57.2 °F 50% 30.08 in 10.0 mi South 10.4 mph - N/A   Clear
6:15 PM 77.0 °F - 57.2 °F 50% 30.08 in 10.0 mi South 10.4 mph - N/A   Clear
6:35 PM 75.2 °F - 55.4 °F 50% 30.08 in 10.0 mi South 8.1 mph - N/A   Clear
6:55 PM 75.2 °F - 57.2 °F 53% 30.08 in 10.0 mi South 8.1 mph - N/A   Clear
7:15 PM 73.4 °F - 57.2 °F 57% 30.08 in 10.0 mi South 9.2 mph - N/A   Clear
7:35 PM 73.4 °F - 55.4 °F 53% 30.08 in 10.0 mi SSE 9.2 mph - N/A   Clear
7:55 PM 73.4 °F - 55.4 °F 53% 30.08 in 10.0 mi South 6.9 mph - N/A   Clear
8:15 PM 71.6 °F - 53.6 °F 53% 30.08 in 10.0 mi South 8.1 mph - N/A   Clear
8:35 PM 71.6 °F - 51.8 °F 50% 30.08 in 10.0 mi South 5.8 mph - N/A   Clear
8:55 PM 69.8 °F - 51.8 °F 53% 30.08 in 10.0 mi South 8.1 mph - N/A   Clear
9:15 PM 69.8 °F - 51.8 °F 53% 30.08 in 10.0 mi South 6.9 mph - N/A   Clear
9:35 PM 69.8 °F - 53.6 °F 56% 30.08 in 10.0 mi South 8.1 mph - N/A   Clear
9:55 PM 68.0 °F - 55.4 °F 64% 30.08 in 10.0 mi South 8.1 mph - N/A   Clear
10:15 PM 68.0 °F - 55.4 °F 64% 30.08 in 10.0 mi South 5.8 mph - N/A   Clear
10:35 PM 66.2 °F - 55.4 °F 68% 30.08 in 10.0 mi South 5.8 mph - N/A   Clear
10:55 PM 66.2 °F - 55.4 °F 68% 30.08 in 10.0 mi South 5.8 mph - N/A   Clear
11:15 PM 64.4 °F - 55.4 °F 73% 30.08 in 10.0 mi SSW 4.6 mph - N/A   Clear
11:35 PM 64.4 °F - 55.4 °F 73% 30.07 in 10.0 mi SSW 5.8 mph - N/A   Clear
11:55 PM 64.4 °F - 55.4 °F 73% 30.07 in 10.0 mi SW 6.9 mph - N/A   Clear